Location: Carrières
(48.9495°N, 2.0407°E)
Time: 22:44:08
(UTC+00:00)

Cosmos 2263 Rocket - Visible Passes

Search period start: 24 June 2024 00:00
Search period end: 04 July 2024 00:00
Orbit: 824 x 846 km, 71.0° (Epoch: 23 June)

Date Brightness Start Highest point End Pass type
(mag) Time Alt. Az. Time Alt. Az. Time Alt. Az.
24 Jun 2.7 00:08:46 17° SW 00:12:58 54° WNW 00:18:27 10° NNE visible
24 Jun 4.6 01:55:10 10° WNW 01:58:13 15° NNW 02:01:17 10° N visible
24 Jun 3.3 22:10:02 19° SE 22:12:25 26° ESE 22:16:57 10° NE visible
24 Jun 2.6 23:51:40 17° SW 23:55:58 58° WNW 00:01:28 10° NNE visible
25 Jun 4.6 01:37:53 10° WNW 01:41:08 15° NW 01:44:23 10° N visible
25 Jun 3.4 21:52:52 17° SE 21:55:29 24° ESE 21:59:50 10° NE visible
25 Jun 2.5 23:34:30 16° SW 23:38:57 62° WNW 23:44:30 10° NNE visible
26 Jun 4.6 01:20:38 10° WNW 01:24:02 16° NW 01:27:29 10° N visible
26 Jun 3.5 21:35:39 15° SE 21:38:33 22° ESE 21:42:44 10° NE visible
26 Jun 2.4 23:17:16 15° SW 23:21:56 67° WNW 23:27:30 10° NNE visible
27 Jun 4.6 01:03:22 10° WNW 01:06:58 17° NW 01:10:33 10° N visible
27 Jun 3.5 21:18:19 12° SE 21:21:36 20° E 21:25:36 10° NE visible
27 Jun 2.3 22:59:56 13° SW 23:04:56 72° WNW 23:10:31 10° NNE visible
28 Jun 4.6 00:46:08 10° W 00:49:53 18° NW 00:53:38 10° N visible
28 Jun 3.6 21:00:56 10° SE 21:04:41 19° E 21:08:26 10° ENE visible
28 Jun 2.3 22:42:28 11° SSW 22:47:56 77° WNW 22:53:33 10° NNE visible
29 Jun 4.5 00:28:55 10° W 00:32:48 19° NW 00:36:43 10° N visible
29 Jun 3.7 20:44:15 10° SE 20:47:46 17° E 20:51:16 10° ENE visible
29 Jun 2.2 22:25:22 10° SSW 22:30:56 83° WNW 22:36:33 10° NNE visible
30 Jun 4.5 00:11:41 10° W 00:15:44 20° NW 00:19:47 10° N visible
30 Jun 2.1 22:08:22 10° SSW 22:13:57 89° WNW 22:19:33 10° NNE visible
30 Jun 4.5 23:54:29 10° W 23:58:39 21° NW 00:02:51 10° N visible
01 Jul 2.1 21:51:23 10° SSW 21:56:57 85° ESE 22:02:33 10° NNE visible
01 Jul 4.4 23:37:17 10° W 23:41:35 22° NW 23:45:54 10° N visible
02 Jul 2.1 21:34:24 10° SSW 21:39:58 79° ESE 21:45:33 10° NNE visible
02 Jul 4.4 23:20:07 10° W 23:24:32 24° NW 23:28:58 10° N visible
03 Jul 2.1 21:17:26 10° SSW 21:22:58 74° ESE 21:28:33 10° NNE visible
03 Jul 4.3 23:02:56 10° W 23:07:28 25° NW 23:12:01 10° N visible
